Showing default

KINEIS-5D, 62082

Orbit data source: Space-Track

KINEIS-5D, 62082 is a French payload satellite in SSO that was launched on Mon, 25 Nov 2024 UTC via an ELECTRON launch vehicle from the Rocket Lab Launch Complex (RLLC). Payload-class satellites include a variety of spacecraft equipped with specific instruments for various scientific and technological missions. These include communications satellites like Starlink; space stations such as the ISS; scientific satellites like the Hubble; Earth observation satellites from companies like Planet Labs, Umbra, and HawkEye 360; GPS; miniature CubeSats for education and research; and military/defense satellites.

Loading next visibility...
Identifier
62082, 2024-219B
Orbit
SSO
Country
Flag of FRFR
Related business
Manufacturer
KINEIS
Mission
Operational Commercial Communications
Bus & Motor
CUBESAT 16U, Unknown motor
Mass
28 kg wet, 28 kg dry
Launch date (UTC)
2024-11-25 (11 months ago)
Launch vehicle
ELECTRON
Launch site
Rocket Lab Launch Complex (RLLC)
Object type
Payload
Rocket body
Debris
Shape & HBR
Box + 2 Pan + 1 Ant, 1.0 m
Radar Cross Section
0.229 m², Medium (>0.1 m² and < 1m²)

Expand to show TLE details & history
Last TLE update: 17 hours ago

TLE from 17 hours ago
0 KINEIS-5D
1 62082U 24219B   25312.83100139  .00001519  00000-0  24791-3 0  9996
2 62082  97.9854 111.4714 0001661  20.5863 339.5412 14.72338386 51333
Epoch: 2025-11-08T19:56Z
TLE epoch observation values (Epoch: 2025-11-08T19:56:38.520Z)
Latitude
0.00009°
Longitude
124.05591°
Altitude
655.527 km
Speed
7.53 km/s
True Right ascension
07h 25m 53s
True Declination
0° 00' 00"
Sunlit
Object was in daylight at epoch
Visualization orbit readout
Latitude
Unknown
Longitude
Unknown
Altitude
Unknown
Speed
Unknown
Apparent Right ascension
Unknown
Apparent Declination
Unknown
Sunlit
N/A
Visualization observer readout
Local Sidereal Time
09:09:32
Azimuth
Unknown
Elevation
Unknown
Doppler factor
Unknown
Orbital elements
Apogee altitude
651.835 km
Perigee altitude
649.5 km
Semi-major axis
7,028.805 km
Eccentricity
0.00017
Inclination
97.9854°
RAAN
111.4714°
Arg. of periapsis
20.5863°
True anomaly
339.53455°
Mean anomaly
339.5412°
Eccentric anomaly
339.53787°
Mean motion
3.68316 °/min
Orbital period
97.74 mins
BSTAR
0.00024791
Loading maneuver chart data...
Computing Atmospheric mass density...
Loading historical data...
Loading historical data...
Loading historical data...
Loading historical data...
Loading historical data...
Loading historical data...
Loading historical data...

Documentation

Showing up to 5 results
|